QPF
0.00 0.00 0.00 0.00 0.00 0.00 0.00 0.00 0.00 0.00 0.01 0.01 0.00 0.00 0.00 0.00 0.00 0.00 0.00 0.00 0.00 0.00 0.00 0.00 0.00 0.03 0.03 0.04 0.03 0.01 0.00 0.00 0.00 0.00 0.04 0.00 0.00 0.00 0.00 0.01 0.03 0.01 0.00 0.01 0.01 0.00 0.00
0.00 0.00 0.00 0.00 0.00 0.00 0.00 0.00 0.00 0.00 0.00 0.01 0.01 0.00 0.00 0.00 0.00 0.00 0.00 0.00 0.00 0.00 0.00 0.00 0.01 0.04 0.03 0.04 0.03 0.01 0.00 0.00 0.00 0.00 0.04 0.01 0.00 0.00 0.01 0.01 0.03 0.01 0.02 0.03 0.01 0.00 0.00
0.00 0.00 0.00 0.00 0.00 0.00 0.00 0.01 0.00 0.00 0.00 0.01 0.01 0.01 0.00 0.00 0.00 0.00 0.00 0.00 0.00 0.00 0.00 0.00 0.00 0.00 0.01 0.00 0.00 0.00 0.01 0.00 0.00 0.00 0.02 0.01 0.00 0.01 0.01 0.02 0.03 0.03 0.06 0.06 0.03 0.01 0.01
0.00 0.00 0.00 0.00 0.00 0.00 0.00 0.00 0.00 0.00 0.00 0.00 0.00 0.01 0.01 0.00 0.00 0.00 0.00 0.00 0.00 0.00 0.00 0.00 0.00 0.00 0.00 0.00 0.00 0.00 0.01 0.05 0.01 0.01 0.09 0.07 0.01 0.02 0.02 0.01 0.01 0.03 0.06 0.06 0.02 0.01 0.04
0.00 0.00 0.00 0.00 0.00 0.00 0.00 0.00 0.00 0.00 0.00 0.00 0.00 0.00 0.01 0.01 0.00 0.00 0.00 0.00 0.00 0.00 0.00 0.00 0.00 0.00 0.00 0.00 0.00 0.00 0.00 0.07 0.07 0.02 0.11 0.21 0.02 0.02 0.01 0.01 0.01 0.01 0.01 0.00 0.00 0.00 0.00
0.00 0.00 0.00 0.00 0.00 0.00 0.01 0.01 0.01 0.01 0.00 0.00 0.00 0.00 0.00 0.00 0.00 0.00 0.00 0.00 0.00 0.00 0.00 0.00 0.00 0.00 0.00 0.00 0.00 0.00 0.00 0.03 0.07 0.04 0.22 0.50 0.10 0.01 0.00 0.00 0.00 0.00 0.00 0.00 0.00 0.00 0.00
0.00 0.00 0.00 0.00 0.00 0.00 0.01 0.01 0.01 0.01 0.01 0.00 0.00 0.00 0.00 0.01 0.00 0.00 0.00 0.00 0.00 0.00 0.00 0.00 0.00 0.00 0.00 0.00 0.00 0.00 0.00 0.01 0.08 0.16 0.47 0.40 0.25 0.00 0.00 0.00 0.00 0.00 0.00 0.00 0.00 0.00 0.00
0.00 0.00 0.00 0.00 0.00 0.00 0.00 0.01 0.01 0.01 0.01 0.00 0.00 0.01 0.00 0.00 0.00 0.00 0.00 0.00 0.00 0.00 0.00 0.00 0.00 0.00 0.00 0.00 0.00 0.00 0.00 0.03 0.23 0.22 0.39 0.25 0.09 0.00 0.00 0.00 0.00 0.00 0.00 0.00 0.00 0.00 0.00
0.00 0.00 0.00 0.00 0.00 0.00 0.00 0.00 0.01 0.01 0.01 0.01 0.01 0.01 0.00 0.00 0.00 0.00 0.00 0.00 0.00 0.00 0.00 0.00 0.00 0.00 0.00 0.00 0.00 0.00 0.00 0.03 0.22 0.16 0.32 0.10 0.01 0.00 0.00 0.00 0.00 0.00 0.00 0.00 0.00 0.00 0.00
0.00 0.00 0.00 0.00 0.00 0.00 0.00 0.00 0.01 0.01 0.01 0.01 0.00 0.00 0.00 0.00 0.00 0.00 0.00 0.00 0.00 0.00 0.02 0.01 0.00 0.00 0.00 0.00 0.00 0.00 0.00 0.01 0.10 0.15 0.20 0.13 0.01 0.00 0.01 0.02 0.00 0.00 0.00 0.00 0.00 0.00 0.00
0.00 0.00 0.00 0.00 0.00 0.00 0.00 0.00 0.00 0.01 0.01 0.01 0.00 0.00 0.00 0.00 0.00 0.00 0.00 0.00 0.00 0.00 0.05 0.05 0.04 0.00 0.00 0.00 0.00 0.01 0.01 0.02 0.13 0.09 0.14 0.13 0.04 0.00 0.00 0.01 0.00 0.00 0.00 0.00 0.00 0.00 0.00
0.00 0.00 0.00 0.00 0.00 0.00 0.00 0.00 0.01 0.01 0.01 0.00 0.00 0.00 0.00 0.00 0.00 0.00 0.00 0.00 0.00 0.00 0.03 0.06 0.00 0.00 0.00 0.00 0.00 0.01 0.02 0.05 0.12 0.07 0.05 0.06 0.01 0.00 0.00 0.00 0.00 0.00 0.00 0.00 0.00 0.00 0.00
0.00 0.00 0.00 0.00 0.00 0.00 0.00 0.00 0.00 0.00 0.00 0.00 0.00 0.00 0.00 0.00 0.00 0.00 0.00 0.00 0.00 0.00 0.01 0.07 0.01 0.00 0.00 0.00 0.00 0.00 0.02 0.09 0.05 0.07 0.09 0.14 0.03 0.00 0.00 0.00 0.00 0.00 0.00 0.00 0.00 0.00 0.00
0.00 0.00 0.00 0.00 0.00 0.00 0.00 0.00 0.00 0.00 0.00 0.00 0.00 0.00 0.00 0.00 0.00 0.00 0.00 0.00 0.00 0.00 0.02 0.07 0.01 0.00 0.00 0.00 0.00 0.00 0.00 0.03 0.02 0.00 0.03 0.10 0.05 0.00 0.00 0.00 0.00 0.00 0.00 0.00 0.00 0.00 0.00
0.00 0.00 0.00 0.00 0.00 0.00 0.00 0.00 0.00 0.00 0.00 0.00 0.00 0.00 0.00 0.00 0.00 0.00 0.00 0.00 0.00 0.00 0.00 0.03 0.09 0.05 0.02 0.01 0.00 0.00 0.00 0.00 0.00 0.00 0.00 0.03 0.03 0.00 0.00 0.00 0.00 0.00 0.00 0.00 0.00 0.00 0.00
0.00 0.00 0.00 0.00 0.00 0.00 0.00 0.00 0.00 0.00 0.00 0.00 0.00 0.00 0.00 0.00 0.00 0.00 0.00 0.00 0.00 0.00 0.00 0.00 0.04 0.03 0.02 0.01 0.00 0.00 0.00 0.00 0.00 0.00 0.00 0.00 0.01 0.01 0.00 0.00 0.00 0.00 0.00 0.00 0.00 0.00 0.00
0.00 0.00 0.00 0.00 0.00 0.00 0.00 0.00 0.00 0.00 0.00 0.00 0.00 0.00 0.00 0.00 0.00 0.00 0.00 0.00 0.00 0.00 0.00 0.00 0.00 0.00 0.00 0.00 0.00 0.00 0.00 0.00 0.00 0.00 0.00 0.00 0.00 0.00 0.01 0.00 0.00 0.00 0.00 0.00 0.00 0.00 0.00
0.00 0.00 0.00 0.00 0.00 0.00 0.00 0.00 0.00 0.00 0.00 0.00 0.00 0.00 0.00 0.00 0.00 0.00 0.00 0.00 0.00 0.00 0.00 0.00 0.00 0.00 0.00 0.00 0.00 0.00 0.00 0.00 0.00 0.00 0.00 0.00 0.00 0.00 0.00 0.00 0.00 0.00 0.00 0.00 0.00 0.00 0.00
0.00 0.00 0.00 0.00 0.00 0.00 0.00 0.00 0.00 0.00 0.00 0.00 0.00 0.00 0.00 0.00 0.00 0.00 0.00 0.00 0.00 0.00 0.00 0.00 0.00 0.00 0.00 0.00 0.00 0.00 0.00 0.00 0.00 0.00 0.00 0.00 0.00 0.00 0.01 0.00 0.00 0.00 0.00 0.00 0.00 0.00 0.00
0.00 0.00 0.00 0.00 0.00 0.00 0.00 0.00 0.00 0.00 0.00 0.00 0.00 0.00 0.00 0.00 0.00 0.00 0.00 0.00 0.00 0.00 0.00 0.00 0.00 0.00 0.00 0.00 0.00 0.00 0.00 0.00 0.00 0.00 0.00 0.00 0.00 0.00 0.00 0.00 0.00 0.00 0.00 0.00 0.00 0.00 0.00
0.00 0.00 0.00 0.00 0.00 0.00 0.00 0.00 0.00 0.00 0.00 0.00 0.00 0.00 0.00 0.00 0.00 0.00 0.00 0.00 0.00 0.00 0.00 0.00 0.00 0.00 0.00 0.00 0.00 0.00 0.00 0.00 0.00 0.00 0.00 0.00 0.00 0.00 0.00 0.00 0.00 0.00 0.00 0.00 0.00 0.00 0.00
0.00 0.00 0.00 0.00 0.00 0.00 0.00 0.00 0.00 0.00 0.00 0.00 0.00 0.00 0.00 0.00 0.00 0.00 0.00 0.00 0.00 0.00 0.00 0.00 0.00 0.00 0.00 0.00 0.00 0.00 0.00 0.00 0.00 0.00 0.00 0.00 0.00 0.00 0.00 0.00 0.00 0.00 0.00 0.00 0.00 0.00 0.00
0.00 0.00 0.00 0.00 0.00 0.00 0.00 0.00 0.00 0.00 0.00 0.00 0.00 0.00 0.00 0.00 0.00 0.00 0.00 0.00 0.00 0.00 0.00 0.00 0.00 0.00 0.00 0.00 0.00 0.00 0.00 0.00 0.00 0.00 0.00 0.00 0.00 0.00 0.00 0.00 0.00 0.00 0.00 0.00 0.00 0.00 0.00
0.00 0.00 0.00 0.00 0.00 0.00 0.00 0.00 0.00 0.00 0.00 0.00 0.00 0.00 0.00 0.00 0.00 0.00 0.00 0.00 0.00 0.00 0.00 0.00 0.00 0.00 0.00 0.00 0.00 0.00 0.00 0.00 0.00 0.00 0.00 0.00 0.00 0.00 0.00 0.00 0.00 0.00 0.00 0.00 0.00 0.00 0.00
0.00 0.00 0.00 0.00 0.00 0.00 0.00 0.00 0.00 0.00 0.00 0.00 0.00 0.00 0.00 0.00 0.00 0.00 0.00 0.00 0.00 0.00 0.00 0.00 0.00 0.00 0.00 0.00 0.00 0.00 0.00 0.00 0.00 0.00 0.00 0.00 0.00 0.00 0.00 0.00 0.00 0.00 0.00 0.00 0.00 0.00 0.00
0.00 0.00 0.00 0.00 0.00 0.00 0.00 0.00 0.00 0.00 0.00 0.00 0.00 0.00 0.00 0.00 0.00 0.00 0.00 0.00 0.00 0.00 0.00 0.00 0.00 0.00 0.00 0.00 0.00 0.00 0.00 0.00 0.00 0.00 0.00 0.00 0.00 0.00 0.00 0.00 0.00 0.00 0.00 0.00 0.00 0.00 0.00
0.00 0.00 0.00 0.00 0.00 0.00 0.00 0.00 0.00 0.00 0.00 0.00 0.00 0.00 0.00 0.00 0.00 0.00 0.00 0.00 0.00 0.00 0.00 0.00 0.00 0.00 0.00 0.00 0.00 0.00 0.00 0.00 0.00 0.00 0.00 0.00 0.00 0.00 0.00 0.00 0.00 0.00 0.00 0.00 0.00 0.00 0.00
0.00 0.00 0.00 0.00 0.00 0.00 0.00 0.00 0.00 0.00 0.00 0.00 0.00 0.00 0.00 0.00 0.00 0.00 0.00 0.00 0.00 0.00 0.00 0.00 0.00 0.00 0.00 0.00 0.00 0.00 0.00 0.00 0.00 0.00 0.00 0.00 0.00 0.00 0.00 0.00 0.00 0.00 0.00 0.00 0.00 0.00 0.00
0.00 0.00 0.00 0.00 0.00 0.00 0.00 0.00 0.00 0.00 0.00 0.00 0.00 0.00 0.00 0.00 0.00 0.00 0.00 0.00 0.00 0.00 0.00 0.00 0.00 0.00 0.00 0.00 0.00 0.00 0.00 0.00 0.00 0.00 0.00 0.00 0.00 0.00 0.00 0.00 0.00 0.00 0.00 0.00 0.00 0.00 0.00
MSLP
1022.11 1021.69 1021.34 1021.14 1020.95 1020.70 1020.31 1019.87 1019.49 1019.00 1018.50 1018.09 1017.83 1017.49 1017.14 1016.86 1016.46 1016.17 1015.70 1015.34 1014.98 1014.85 1014.63 1014.44 1014.33 1014.36 1014.49 1014.60 1014.34 1013.88 1013.54 1013.62 1013.49 1013.62 1014.09 1014.37 1014.93 1015.21 1014.97 1014.97 1015.30 1015.41 1015.16 1015.08 1015.83 1016.12 1016.53
1022.04 1021.63 1021.28 1021.04 1020.94 1020.62 1020.25 1019.79 1019.43 1018.97 1018.62 1018.20 1017.77 1017.46 1017.19 1016.78 1016.49 1016.24 1015.98 1015.56 1015.27 1015.06 1014.90 1014.73 1014.64 1014.64 1014.69 1014.67 1014.48 1013.96 1013.66 1013.21 1013.26 1013.43 1013.95 1014.23 1014.53 1014.87 1014.92 1014.90 1015.14 1014.76 1014.98 1015.37 1016.08 1016.25 1016.71
1021.87 1021.58 1021.23 1021.04 1020.77 1020.52 1020.14 1019.69 1019.33 1018.92 1018.57 1018.12 1017.93 1017.52 1017.19 1016.97 1016.69 1016.36 1016.06 1015.78 1015.47 1015.26 1015.16 1014.93 1014.86 1014.81 1014.61 1014.22 1013.87 1013.67 1013.26 1012.98 1012.58 1013.19 1013.65 1014.07 1014.09 1014.83 1014.78 1015.22 1015.22 1015.32 1015.67 1016.14 1016.14 1016.25 1017.00
1021.64 1021.46 1021.10 1021.02 1020.69 1020.49 1020.12 1019.70 1019.36 1018.97 1018.39 1018.16 1017.80 1017.61 1017.23 1016.81 1016.58 1016.31 1016.10 1015.78 1015.54 1015.40 1015.23 1015.07 1014.95 1015.07 1014.49 1013.58 1013.66 1013.57 1013.20 1012.50 1012.43 1012.99 1013.38 1013.81 1014.20 1014.74 1015.24 1015.22 1015.55 1016.00 1016.34 1016.10 1016.20 1016.62 1017.47
1021.42 1021.32 1020.92 1020.84 1020.62 1020.34 1020.03 1019.69 1019.26 1018.88 1018.42 1017.93 1017.74 1017.46 1017.23 1016.96 1016.40 1016.05 1015.84 1015.65 1015.45 1015.33 1015.14 1015.18 1015.27 1015.29 1014.39 1013.43 1013.40 1013.19 1012.96 1012.63 1012.67 1013.10 1013.65 1013.98 1014.56 1014.99 1015.34 1015.59 1016.23 1016.41 1016.56 1016.55 1016.78 1016.64 1016.81
1021.24 1021.07 1020.86 1020.53 1020.55 1020.30 1019.88 1019.51 1019.11 1018.72 1018.38 1017.94 1017.55 1017.35 1017.07 1016.75 1016.45 1016.03 1015.62 1015.40 1015.46 1015.40 1015.32 1015.29 1015.38 1015.64 1014.49 1014.17 1013.68 1013.40 1013.21 1013.15 1013.00 1013.59 1014.36 1014.51 1015.06 1015.35 1015.59 1015.53 1015.10 1015.98 1016.42 1016.14 1016.05 1016.16 1016.43
1021.11 1020.86 1020.75 1020.38 1020.31 1020.10 1019.70 1019.34 1018.93 1018.61 1018.30 1017.82 1017.46 1017.28 1016.99 1016.73 1016.41 1016.01 1015.92 1015.78 1016.13 1016.03 1015.77 1015.76 1015.75 1015.42 1014.93 1014.35 1013.82 1013.87 1013.62 1013.51 1013.57 1014.11 1015.00 1015.20 1015.39 1015.01 1015.35 1015.47 1015.63 1016.04 1016.38 1016.64 1016.19 1015.88 1016.39
1020.81 1020.62 1020.57 1020.20 1020.04 1019.85 1019.48 1019.11 1018.80 1018.50 1018.14 1017.64 1017.26 1017.14 1016.75 1016.42 1016.33 1015.94 1016.15 1016.25 1016.10 1016.38 1016.05 1015.57 1015.60 1015.38 1015.05 1014.74 1014.44 1014.27 1014.05 1014.28 1014.29 1015.00 1015.68 1016.55 1015.76 1015.67 1015.51 1015.40 1015.79 1016.07 1016.47 1016.58 1016.21 1015.83 1016.54
1020.47 1020.40 1020.41 1020.08 1019.80 1019.61 1019.27 1018.96 1018.62 1018.31 1017.94 1017.46 1017.10 1016.96 1016.56 1016.32 1016.08 1015.96 1015.97 1016.06 1015.93 1016.01 1016.20 1015.71 1015.52 1015.38 1015.33 1015.10 1014.85 1014.63 1014.61 1015.10 1015.18 1015.98 1016.67 1015.97 1015.30 1015.38 1015.35 1015.63 1016.06 1016.39 1016.42 1016.71 1016.62 1016.57 1016.83
1020.12 1020.15 1020.18 1019.92 1019.71 1019.33 1019.04 1018.82 1018.42 1018.03 1017.69 1017.30 1016.91 1016.64 1016.36 1016.10 1016.25 1016.00 1015.97 1015.77 1016.05 1015.96 1016.20 1016.08 1015.62 1015.58 1015.42 1015.07 1015.21 1014.91 1014.96 1015.19 1015.30 1016.52 1016.40 1016.03 1015.46 1015.34 1015.52 1015.83 1015.96 1016.53 1016.59 1016.73 1017.14 1017.34 1017.73
1019.85 1019.98 1019.86 1019.74 1019.51 1019.25 1018.85 1018.57 1018.12 1017.73 1017.43 1017.03 1016.61 1016.27 1016.06 1015.84 1016.13 1016.18 1015.82 1015.75 1015.87 1016.15 1016.31 1016.29 1015.82 1015.66 1015.29 1015.32 1015.36 1015.27 1014.94 1014.64 1015.45 1015.88 1016.50 1016.35 1015.52 1015.51 1015.74 1015.79 1015.61 1016.55 1016.67 1017.15 1017.88 1018.44 1018.45
1019.65 1019.77 1019.67 1019.58 1019.36 1019.04 1018.60 1018.22 1017.83 1017.45 1017.11 1016.61 1016.14 1015.80 1015.70 1015.78 1015.95 1015.82 1015.62 1015.66 1016.02 1016.68 1016.05 1016.03 1015.86 1015.68 1015.43 1015.23 1015.27 1015.30 1015.17 1014.95 1015.67 1015.70 1016.14 1016.04 1016.04 1015.96 1015.96 1015.83 1015.79 1016.59 1017.10 1018.03 1018.81 1019.53 1019.72
1019.49 1019.59 1019.49 1019.37 1019.13 1018.83 1018.38 1018.01 1017.63 1017.19 1016.71 1016.22 1015.65 1015.24 1015.32 1015.86 1015.72 1015.61 1015.74 1015.96 1016.60 1016.26 1015.69 1015.99 1015.75 1015.62 1015.25 1015.12 1014.94 1014.92 1015.33 1015.81 1015.85 1016.02 1016.05 1016.24 1016.31 1016.39 1016.12 1016.25 1016.37 1016.64 1017.61 1019.46 1020.46 1021.01 1020.68
1019.33 1019.35 1019.31 1019.19 1018.92 1018.60 1018.21 1017.90 1017.41 1016.88 1016.32 1015.84 1015.36 1015.14 1015.34 1015.66 1015.60 1015.73 1015.90 1016.30 1016.22 1015.70 1015.08 1015.31 1015.48 1015.49 1015.22 1014.90 1015.02 1015.04 1015.49 1015.69 1015.74 1015.37 1016.01 1016.25 1016.83 1016.75 1016.74 1016.54 1016.72 1017.28 1017.79 1019.43 1020.60 1021.61 1021.15
1019.11 1019.13 1019.05 1018.98 1018.70 1018.38 1018.03 1017.68 1017.10 1016.56 1016.05 1015.50 1015.42 1015.79 1016.02 1015.77 1015.74 1015.80 1016.35 1016.23 1015.84 1015.28 1014.77 1014.72 1015.40 1015.17 1015.22 1014.78 1014.87 1015.20 1015.19 1015.18 1015.11 1014.96 1015.56 1016.11 1016.92 1017.19 1017.15 1016.89 1016.92 1017.62 1018.32 1019.30 1020.77 1022.27 1021.85
1018.85 1018.90 1018.79 1018.76 1018.52 1018.23 1017.85 1017.40 1016.88 1016.27 1015.78 1015.43 1015.84 1016.15 1016.21 1015.90 1015.76 1016.17 1016.38 1015.93 1015.42 1014.55 1014.08 1014.40 1014.25 1014.17 1014.48 1014.45 1014.72 1014.83 1014.98 1014.57 1014.79 1015.00 1015.27 1016.18 1016.98 1017.44 1017.44 1017.24 1017.30 1017.30 1018.18 1019.49 1020.77 1021.92 1021.72
1018.52 1018.60 1018.59 1018.53 1018.37 1018.08 1017.66 1017.22 1016.67 1016.06 1015.55 1015.37 1016.06 1016.25 1016.20 1015.97 1016.00 1016.05 1016.34 1015.54 1014.55 1013.76 1013.27 1013.29 1013.28 1013.38 1013.81 1014.16 1014.26 1014.55 1014.90 1014.73 1014.64 1015.34 1015.38 1015.86 1016.33 1017.80 1017.54 1017.69 1017.61 1017.93 1018.34 1019.28 1019.99 1021.00 1021.19
1018.12 1018.30 1018.30 1018.41 1018.18 1017.75 1017.50 1017.06 1016.45 1015.81 1015.27 1015.52 1016.26 1016.48 1016.23 1016.30 1016.41 1016.00 1015.64 1014.80 1013.76 1013.29 1012.94 1012.62 1012.61 1012.64 1013.32 1013.83 1014.20 1014.53 1014.61 1014.48 1014.35 1014.71 1015.28 1015.70 1016.67 1017.60 1017.84 1017.62 1017.67 1017.86 1018.27 1018.71 1019.57 1020.86 1021.02
1017.78 1017.95 1018.03 1018.20 1017.94 1017.49 1017.37 1016.94 1016.21 1015.52 1015.06 1015.91 1016.71 1016.88 1016.49 1016.46 1016.26 1015.89 1015.02 1014.11 1013.63 1012.99 1012.87 1012.60 1012.65 1012.67 1012.67 1013.46 1014.08 1014.19 1014.26 1014.31 1014.35 1014.64 1014.87 1015.60 1016.86 1017.97 1018.34 1018.31 1017.93 1018.00 1018.28 1018.66 1019.05 1019.47 1019.21
1017.48 1017.58 1017.85 1017.97 1017.68 1017.38 1017.23 1016.72 1015.99 1015.32 1015.00 1015.60 1017.20 1017.36 1017.00 1016.49 1016.01 1015.57 1014.82 1014.10 1013.57 1013.17 1013.06 1012.76 1012.73 1012.69 1012.85 1013.50 1013.83 1014.41 1014.45 1014.40 1014.50 1014.58 1014.85 1015.50 1016.67 1017.29 1017.56 1017.37 1017.38 1017.98 1017.76 1018.24 1018.66 1018.70 1018.02
1017.11 1017.37 1017.67 1017.65 1017.43 1017.33 1017.08 1016.55 1015.90 1015.24 1014.95 1015.66 1017.44 1017.75 1017.47 1017.00 1016.25 1015.70 1014.90 1014.39 1013.77 1013.50 1013.22 1013.22 1013.12 1013.33 1013.56 1013.95 1014.25 1014.59 1014.70 1014.71 1014.86 1015.14 1015.80 1016.42 1017.39 1017.69 1017.68 1017.61 1017.62 1017.57 1017.53 1017.61 1017.61 1017.29 1016.64
1016.84 1017.16 1017.50 1017.42 1017.36 1017.23 1017.05 1016.52 1015.86 1015.33 1015.17 1016.59 1018.23 1018.40 1017.83 1017.09 1016.38 1015.96 1015.59 1015.28 1014.63 1014.31 1014.03 1013.99 1014.03 1013.96 1013.79 1014.50 1014.83 1014.84 1014.77 1014.98 1015.20 1015.92 1016.56 1017.05 1017.87 1018.18 1018.23 1017.72 1017.56 1017.40 1016.91 1016.74 1016.44 1016.05 1016.04
1016.59 1016.98 1017.31 1017.24 1017.27 1017.25 1017.06 1016.63 1016.09 1015.58 1015.43 1017.67 1018.82 1018.68 1018.39 1017.78 1016.85 1016.41 1016.65 1016.27 1015.73 1015.21 1014.98 1014.86 1014.56 1014.30 1014.66 1015.11 1015.11 1015.00 1014.99 1014.98 1015.05 1015.66 1016.74 1017.59 1018.41 1019.29 1019.46 1018.76 1018.18 1017.47 1015.42 1015.47 1015.38 1014.97 1014.72
1016.34 1016.84 1017.05 1017.11 1017.24 1017.28 1017.13 1016.78 1016.35 1016.16 1016.30 1017.64 1018.95 1018.96 1018.66 1018.86 1018.13 1017.76 1017.37 1017.14 1016.68 1016.31 1015.78 1015.41 1015.10 1014.89 1015.38 1015.05 1015.09 1015.09 1015.18 1015.30 1015.52 1016.00 1016.33 1017.62 1018.68 1019.45 1019.91 1019.41 1018.21 1015.34 1014.60 1014.46 1014.58 1014.22 1013.99
1015.98 1016.52 1016.83 1016.92 1017.26 1017.27 1017.19 1016.90 1016.64 1016.59 1016.77 1017.66 1018.73 1019.08 1019.17 1019.56 1019.41 1018.78 1018.47 1018.00 1017.16 1016.81 1016.65 1016.13 1016.07 1016.17 1015.67 1015.38 1015.72 1015.96 1016.13 1015.98 1015.97 1016.20 1016.62 1017.08 1018.28 1019.51 1019.80 1019.37 1016.92 1014.82 1014.41 1014.23 1014.17 1013.63 1013.13
1015.67 1016.15 1016.59 1016.87 1017.16 1017.33 1017.29 1017.03 1016.93 1016.85 1017.01 1017.72 1018.63 1018.69 1019.13 1019.35 1020.42 1019.94 1019.42 1018.85 1018.65 1018.14 1017.34 1016.99 1016.60 1016.26 1015.99 1016.02 1016.27 1016.70 1016.82 1016.57 1016.57 1016.56 1016.56 1017.16 1017.58 1018.65 1019.40 1018.78 1016.93 1014.88 1013.86 1013.52 1013.63 1013.33 1012.72
1015.43 1015.91 1016.44 1016.75 1017.02 1017.36 1017.31 1017.08 1016.97 1016.99 1017.18 1017.63 1018.71 1018.59 1018.96 1020.08 1020.76 1020.24 1020.04 1019.81 1019.73 1019.50 1019.18 1018.59 1018.09 1017.32 1016.68 1016.92 1017.22 1017.44 1017.23 1017.01 1017.09 1017.01 1017.03 1017.29 1017.69 1018.13 1018.39 1017.80 1015.96 1014.33 1013.72 1013.47 1013.62 1013.70 1012.51
1015.15 1015.69 1016.17 1016.67 1017.04 1017.31 1017.42 1017.32 1017.13 1017.21 1017.32 1017.68 1018.84 1018.58 1019.19 1020.41 1021.18 1020.79 1020.47 1020.55 1020.42 1020.34 1020.34 1019.91 1019.58 1018.75 1018.34 1018.14 1018.17 1018.06 1018.04 1017.87 1017.72 1017.29 1017.12 1017.17 1017.42 1017.60 1017.52 1017.11 1015.82 1014.00 1013.76 1013.66 1013.27 1012.66 1012.41
1014.93 1015.54 1016.04 1016.57 1016.92 1017.27 1017.51 1017.56 1017.36 1017.51 1017.51 1017.73 1018.78 1018.82 1019.02 1020.08 1021.32 1021.20 1020.95 1020.84 1020.51 1020.29 1019.95 1019.81 1019.94 1019.92 1019.95 1019.57 1019.46 1019.00 1018.79 1018.69 1018.69 1018.26 1017.44 1017.45 1017.05 1017.15 1017.18 1016.05 1014.79 1014.35 1014.00 1013.28 1013.43 1013.18 1012.47
Thickness
5608 5606 5603 5596 5587 5578 5569 5560 5550 5539 5527 5517 5505 5499 5494 5486 5480 5470 5461 5450 5439 5429 5428 5430 5431 5430 5430 5432 5442 5462 5475 5486 5503 5514 5523 5533 5538 5545 5556 5568 5569 5574 5586 5597 5599 5601 5602
5605 5604 5600 5594 5585 5576 5567 5559 5548 5537 5525 5515 5504 5498 5493 5486 5478 5470 5459 5451 5439 5431 5428 5429 5428 5427 5426 5427 5438 5455 5471 5488 5502 5512 5520 5530 5537 5545 5555 5563 5568 5580 5584 5587 5589 5595 5599
5604 5602 5597 5591 5584 5575 5566 5557 5547 5536 5525 5514 5501 5494 5491 5485 5477 5471 5461 5452 5441 5433 5428 5428 5426 5426 5428 5433 5440 5453 5471 5485 5504 5511 5519 5528 5539 5540 5552 5553 5563 5569 5571 5573 5579 5587 5586
5604 5600 5595 5589 5583 5574 5564 5555 5545 5533 5524 5513 5501 5492 5488 5486 5480 5472 5463 5454 5445 5434 5429 5428 5427 5425 5428 5442 5446 5455 5468 5490 5505 5511 5521 5527 5534 5539 5541 5552 5554 5556 5560 5564 5577 5581 5578
5603 5597 5594 5587 5580 5573 5564 5554 5546 5534 5524 5514 5501 5493 5488 5485 5483 5476 5467 5457 5449 5439 5432 5427 5425 5424 5429 5444 5449 5457 5472 5490 5503 5509 5518 5527 5528 5533 5538 5539 5539 5547 5547 5559 5565 5579 5578
5602 5596 5592 5588 5579 5572 5565 5555 5546 5536 5523 5513 5504 5494 5488 5486 5482 5478 5472 5463 5454 5445 5436 5429 5426 5423 5433 5437 5447 5458 5470 5486 5499 5502 5510 5518 5522 5524 5525 5539 5550 5546 5547 5566 5573 5580 5583
5599 5595 5590 5586 5579 5572 5565 5556 5547 5536 5524 5515 5506 5495 5488 5486 5484 5480 5473 5464 5450 5442 5435 5428 5425 5426 5433 5440 5450 5455 5467 5483 5493 5499 5496 5510 5516 5531 5533 5544 5548 5547 5554 5556 5572 5579 5574
5598 5595 5589 5585 5579 5571 5566 5558 5548 5538 5527 5517 5507 5496 5490 5487 5484 5483 5475 5464 5457 5447 5437 5436 5429 5431 5435 5439 5446 5455 5466 5477 5489 5490 5484 5494 5509 5524 5535 5544 5545 5548 5544 5551 5567 5574 5570
5597 5593 5587 5584 5579 5572 5567 5558 5549 5539 5529 5519 5509 5497 5490 5486 5485 5484 5478 5470 5462 5453 5440 5439 5436 5434 5436 5440 5446 5454 5463 5469 5478 5480 5475 5510 5523 5526 5535 5538 5538 5540 5543 5547 5555 5563 5565
5596 5592 5587 5583 5577 5573 5567 5559 5552 5542 5532 5521 5508 5499 5492 5489 5484 5483 5479 5476 5465 5457 5441 5443 5441 5438 5440 5443 5443 5455 5463 5473 5481 5476 5488 5503 5517 5525 5528 5535 5537 5538 5547 5551 5549 5551 5544
5595 5590 5587 5581 5576 5571 5567 5561 5554 5546 5535 5523 5510 5501 5494 5490 5485 5482 5485 5478 5471 5460 5464 5447 5443 5440 5444 5448 5448 5452 5467 5483 5480 5490 5492 5498 5521 5521 5525 5533 5545 5540 5545 5547 5547 5541 5549
5592 5588 5585 5579 5574 5570 5567 5562 5556 5548 5537 5527 5515 5506 5497 5492 5487 5486 5485 5481 5475 5439 5470 5457 5449 5449 5449 5454 5454 5459 5470 5481 5481 5494 5498 5507 5511 5519 5526 5533 5544 5536 5538 5535 5532 5529 5515
5590 5585 5582 5578 5572 5568 5567 5562 5556 5549 5540 5530 5521 5510 5500 5490 5489 5487 5485 5481 5462 5458 5478 5467 5460 5457 5462 5462 5469 5477 5473 5472 5487 5491 5500 5502 5509 5513 5522 5530 5537 5539 5531 5494 5500 5493 5510
5587 5584 5580 5575 5571 5567 5565 5561 5557 5551 5543 5535 5524 5513 5500 5492 5488 5485 5483 5475 5462 5488 5489 5478 5472 5466 5470 5478 5479 5483 5481 5481 5491 5506 5495 5514 5504 5511 5510 5527 5527 5533 5536 5506 5521 5506 5521
5585 5581 5578 5574 5569 5567 5564 5561 5558 5553 5546 5538 5525 5510 5496 5491 5485 5485 5481 5443 5468 5463 5494 5488 5473 5475 5473 5486 5489 5488 5490 5496 5503 5508 5510 5511 5509 5509 5509 5520 5531 5530 5515 5524 5492 5481 5476
5583 5580 5577 5572 5568 5565 5562 5561 5558 5554 5548 5539 5522 5506 5495 5489 5484 5480 5478 5479 5480 5496 5502 5490 5494 5489 5488 5495 5492 5496 5494 5510 5510 5510 5515 5506 5512 5509 5515 5521 5525 5531 5528 5525 5487 5489 5512
5581 5578 5574 5570 5566 5564 5561 5559 5557 5555 5550 5540 5522 5512 5495 5487 5480 5481 5451 5472 5496 5506 5510 5510 5507 5506 5498 5498 5505 5505 5494 5509 5518 5508 5513 5512 5519 5509 5517 5515 5518 5522 5505 5509 5512 5498 5500
5579 5575 5572 5568 5565 5563 5559 5557 5556 5555 5551 5539 5520 5514 5495 5481 5482 5476 5457 5488 5511 5513 5512 5516 5516 5517 5509 5500 5500 5494 5499 5514 5519 5517 5517 5517 5504 5509 5516 5518 5518 5519 5518 5516 5495 5496 5479
5576 5573 5570 5566 5563 5561 5557 5554 5556 5555 5551 5533 5519 5508 5491 5479 5484 5470 5485 5506 5508 5511 5511 5515 5515 5516 5520 5513 5506 5511 5512 5513 5518 5519 5517 5514 5501 5502 5498 5508 5510 5517 5516 5514 5508 5493 5486
5574 5572 5567 5563 5561 5558 5554 5553 5554 5554 5549 5536 5513 5500 5486 5482 5477 5481 5490 5497 5506 5509 5510 5513 5515 5516 5519 5511 5504 5507 5510 5516 5519 5521 5525 5521 5499 5498 5501 5509 5514 5506 5517 5514 5512 5512 5528
5570 5567 5562 5560 5559 5555 5552 5552 5552 5552 5547 5535 5508 5501 5483 5467 5476 5475 5485 5491 5501 5507 5504 5501 5511 5506 5513 5512 5508 5502 5507 5509 5514 5516 5509 5511 5485 5488 5504 5512 5503 5505 5509 5513 5511 5520 5520
5566 5564 5559 5557 5555 5553 5550 5549 5550 5549 5544 5521 5507 5496 5477 5470 5470 5475 5469 5477 5488 5494 5497 5496 5499 5499 5507 5500 5501 5501 5502 5503 5505 5503 5496 5494 5481 5482 5482 5506 5503 5500 5504 5508 5521 5526 5518
5562 5559 5555 5553 5551 5549 5546 5546 5545 5545 5541 5513 5496 5487 5474 5468 5472 5482 5462 5470 5472 5476 5487 5490 5496 5502 5495 5493 5494 5497 5498 5498 5504 5498 5489 5487 5465 5452 5460 5480 5491 5489 5515 5512 5515 5523 5527
5557 5554 5551 5549 5547 5545 5542 5541 5540 5537 5531 5515 5496 5485 5479 5468 5459 5462 5457 5462 5460 5462 5480 5483 5488 5498 5493 5489 5492 5496 5491 5490 5494 5488 5488 5474 5466 5447 5442 5466 5453 5513 5522 5519 5513 5525 5524
5553 5550 5547 5545 5541 5540 5538 5537 5535 5530 5524 5513 5498 5486 5473 5457 5442 5446 5445 5447 5457 5458 5468 5480 5476 5476 5478 5492 5489 5488 5478 5498 5498 5491 5489 5482 5467 5448 5450 5446 5487 5524 5519 5513 5513 5523 5521
5547 5545 5543 5540 5537 5535 5533 5531 5528 5524 5520 5510 5498 5489 5472 5459 5436 5431 5433 5436 5433 5440 5465 5469 5471 5467 5480 5482 5483 5483 5470 5485 5485 5490 5488 5489 5486 5471 5457 5462 5481 5511 5522 5518 5515 5508 5528
5542 5540 5538 5535 5533 5529 5527 5526 5524 5520 5516 5508 5495 5490 5476 5451 5434 5431 5424 5425 5425 5429 5438 5448 5453 5459 5470 5470 5478 5475 5465 5484 5480 5481 5481 5483 5485 5467 5464 5470 5486 5502 5510 5513 5512 5511 5522
5537 5535 5533 5529 5527 5523 5520 5519 5519 5515 5511 5506 5491 5488 5474 5448 5433 5428 5427 5419 5417 5416 5424 5429 5442 5449 5453 5460 5467 5463 5465 5463 5469 5479 5475 5476 5465 5469 5473 5476 5460 5507 5513 5512 5510 5513 5518
5530 5528 5526 5522 5520 5517 5514 5511 5511 5507 5504 5500 5487 5482 5472 5453 5434 5424 5422 5418 5419 5422 5419 5421 5426 5437 5433 5453 5454 5455 5455 5459 5449 5466 5469 5469 5474 5481 5469 5476 5494 5498 5502 5506 5503 5504 5511